DW8835 La Escala ES current weather conditions

sailwx.info

Wind from 207

Air temperature 17.8° C
Dewpoint 13.9° C

Last reported at 2014-Oct-31 19:38 UTC.
Time now 2014-Nov-01 11:10 UTC

Location: N 42°07' E 003°08'.
View on Google Maps.

See reports from other nearby stations

  
Tides and Currents Weather Stations Pressure Air Temp Water Temp Dewpoint Dewpoint Depression Visibility Wind Speed Wind Dir Waves Ship Positions
date/time (UTC)wind fromknots sea level pressurealtimeterstation pressurevisibilityair tempwater tempwave heightnotes
2014-Oct-31 19:38 207 17.8
2014-Oct-31 19:28 205 0 gusting 3 17.8
2014-Oct-31 19:18 208 0 gusting 3 17.8
2014-Oct-31 19:08 192 1 gusting 3 17.8
2014-Oct-31 18:58 168 0 gusting 2 17.8
2014-Oct-31 18:48 165 17.8
2014-Oct-31 18:38 164 17.8
2014-Oct-31 18:27 164 17.8
2014-Oct-31 18:18 163 1 gusting 4 17.8
2014-Oct-31 18:08 161 0 gusting 4 17.8
2014-Oct-31 17:58 167 2 gusting 4 17.8
2014-Oct-31 17:47 168 2 gusting 5 17.8
2014-Oct-31 17:37 164 2 gusting 4 17.8
2014-Oct-31 17:28 188 0 gusting 4 17.8
2014-Oct-31 17:18 142 1 gusting 4 17.8
2014-Oct-31 17:07 137 2 gusting 3 17.8
2014-Oct-31 16:58 160 2 gusting 3 18.3
2014-Oct-31 16:48 173 0 gusting 3 18.3
2014-Oct-31 16:37 162 1 gusting 4 18.3
2014-Oct-31 16:28 180 2 gusting 4 18.3
2014-Oct-31 16:18 180 0 gusting 4 18.9
2014-Oct-31 16:08 184 2 gusting 5 18.9
2014-Oct-31 15:58 159 2 gusting 6 18.9
2014-Oct-31 15:48 157 1 gusting 6 18.9
2014-Oct-31 15:38 159 3 gusting 7 18.9
2014-Oct-31 15:28 142 5 gusting 7 19.4
2014-Oct-31 15:18 155 5 gusting 7 19.4
2014-Oct-31 15:07 097 3 gusting 7 19.4
2014-Oct-31 14:58 138 2 gusting 8 19.4
2014-Oct-31 14:48 138 4 gusting 9 19.4
2014-Oct-31 14:38 106 3 gusting 8 19.4
2014-Oct-31 14:28 091 3 gusting 6 20.0
2014-Oct-31 14:18 114 2 gusting 6 20.0
2014-Oct-31 14:08 109 3 gusting 6 20.0
2014-Oct-31 13:58 130 1 gusting 6 20.0
2014-Oct-31 13:48 098 3 gusting 8 20.0
2014-Oct-31 13:38 093 4 gusting 8 19.4
2014-Oct-31 13:28 124 3 gusting 6 20.0
2014-Oct-31 13:17 127 2 gusting 6 20.0
2014-Oct-31 13:08 114 2 gusting 6 19.4
2014-Oct-31 12:58 143 2 gusting 7 19.4
2014-Oct-31 12:48 126 1 gusting 5 20.0
2014-Oct-31 12:37 130 2 gusting 5 20.0
2014-Oct-31 12:28 096 1 gusting 5 19.4
2014-Oct-31 12:17 085 0 gusting 7 19.4
2014-Oct-31 12:08 045 3 gusting 6 19.4
2014-Oct-31 11:58 069 0 gusting 4 18.9
2014-Oct-31 11:48 096 2 gusting 6 18.9
2014-Oct-31 11:37 119 1 gusting 6 19.4
2014-Oct-31 11:28 067 0 gusting 4 18.9
2014-Oct-31 11:18 066 1 gusting 5 18.9
2014-Oct-31 11:08 118 1 gusting 3 18.9
2014-Oct-31 10:57 111 0 gusting 2 19.4
2014-Oct-31 10:48 051 0 gusting 3 18.9
2014-Oct-31 10:38 011 1 gusting 3 18.9
2014-Oct-31 10:27 346 18.3
2014-Oct-31 10:18 340 18.3
2014-Oct-31 10:07 340 1 gusting 3 17.8
2014-Oct-31 09:58 334 0 gusting 2 17.2
2014-Oct-31 09:47 334 0 gusting 1 16.7
2014-Oct-31 09:37 296 16.7
2014-Oct-31 09:28 296 0 gusting 3 16.1
2014-Oct-31 09:17 276 1 gusting 2 15.6
2014-Oct-31 09:08 247 0 gusting 3 15.0
2014-Oct-31 08:58 196 0 gusting 2 15.0
2014-Oct-31 08:48 196 14.4
2014-Oct-31 08:37 198 13.9
2014-Oct-31 08:28 196 13.3
2014-Oct-31 08:17 194 12.8
2014-Oct-31 08:08 192 0 gusting 2 12.8
2014-Oct-31 07:57 191 12.8
2014-Oct-31 07:48 190 0 gusting 1 12.2
2014-Oct-31 07:38 182 12.2
2014-Oct-31 07:27 182 12.2
2014-Oct-31 07:18 182 12.2
2014-Oct-31 07:07 182 12.2
2014-Oct-31 06:58 181 11.7
2014-Oct-31 06:48 181 11.7
2014-Oct-31 06:37 181 11.7
2014-Oct-31 06:27 181 0 gusting 1 11.7
2014-Oct-31 06:18 181 11.7
2014-Oct-31 06:08 173 11.7
2014-Oct-31 05:57 167 0 gusting 1 11.7
2014-Oct-31 05:48 161 0 gusting 2 11.7
2014-Oct-31 05:37 173 11.7
2014-Oct-31 05:28 172 11.7
2014-Oct-31 05:17 190 11.7
2014-Oct-31 05:07 213 2 gusting 3 11.7
2014-Oct-31 04:57 200 0 gusting 2 11.7
2014-Oct-31 04:47 194 11.7
2014-Oct-31 04:37 190 11.7
2014-Oct-31 04:27 190 11.7
2014-Oct-31 04:17 191 11.7
2014-Oct-31 04:07 191 11.7
2014-Oct-31 03:57 191 11.7
2014-Oct-31 03:48 191 11.7
2014-Oct-31 03:37 192 11.7
2014-Oct-31 03:27 192 11.7
2014-Oct-31 03:17 190 11.7
2014-Oct-31 03:07 188 0 gusting 2 11.7
2014-Oct-31 02:57 188 11.7
2014-Oct-31 02:48 177 0 gusting 3 12.2
2014-Oct-31 02:37 192 0 gusting 2 12.2
2014-Oct-31 02:28 200 0 gusting 1 12.2
2014-Oct-31 02:17 201 0 gusting 3 12.2
2014-Oct-31 02:07 182 0 gusting 1 12.8
2014-Oct-31 01:57 177 12.8
2014-Oct-31 01:47 177 12.8
2014-Oct-31 01:37 177 12.8
2014-Oct-31 01:27 177 12.8
2014-Oct-31 01:18 177 0 gusting 1 12.8
2014-Oct-31 01:08 176 0 gusting 3 12.2
2014-Oct-31 00:58 180 0 gusting 1 12.2
2014-Oct-31 00:47 180 12.2
2014-Oct-31 00:37 180 0 gusting 2 12.2
2014-Oct-31 00:27 184 0 gusting 2 12.8
2014-Oct-31 00:18 176 0 gusting 2 12.8
2014-Oct-31 00:09 167 12.8
2014-Oct-30 23:59 167 12.8
2014-Oct-30 23:57 167 12.8
2014-Oct-30 23:47 160 12.8
2014-Oct-30 23:38 160 12.8
2014-Oct-30 23:27 160 13.3
2014-Oct-30 23:18 160 13.3
2014-Oct-30 23:07 160 13.9
2014-Oct-30 22:57 160 13.9
2014-Oct-30 22:47 159 13.9
2014-Oct-30 22:37 159 14.4
2014-Oct-30 22:28 159 14.4
2014-Oct-30 22:17 159 14.4
2014-Oct-30 22:07 158 14.4
2014-Oct-30 21:58 158 14.4
2014-Oct-30 21:47 157 14.4
2014-Oct-30 21:37 157 14.4
2014-Oct-30 21:28 157 14.4
2014-Oct-30 21:17 157 14.4
2014-Oct-30 21:07 156 14.4
2014-Oct-30 20:57 156 15.0
2014-Oct-30 20:47 155 15.0
2014-Oct-30 20:37 155 15.0
2014-Oct-30 20:27 155 15.0
2014-Oct-30 20:17 154 15.0
2014-Oct-30 20:07 154 15.6
2014-Oct-30 19:57 151 15.6
2014-Oct-30 19:37 150 16.1
2014-Oct-30 19:27 150 16.1
2014-Oct-30 19:17 150 16.1
2014-Oct-30 19:07 150 16.7
2014-Oct-30 18:57 150 16.7
2014-Oct-30 18:47 150 16.7
2014-Oct-30 18:37 150 0 gusting 2 17.2
2014-Oct-30 18:28 149 17.2
2014-Oct-30 18:17 149 17.2
2014-Oct-30 18:07 149 17.2
2014-Oct-30 17:57 149 17.8
2014-Oct-30 17:47 149 17.8
2014-Oct-30 17:38 149 17.8
2014-Oct-30 17:27 149 18.3
2014-Oct-30 17:17 149 18.3
2014-Oct-30 17:07 149 18.3
2014-Oct-30 16:57 150 0 gusting 4 18.9
2014-Oct-30 16:47 147 2 gusting 6 18.9
2014-Oct-30 16:37 151 3 gusting 6 18.9
2014-Oct-30 16:27 144 2 gusting 5 19.4
2014-Oct-30 16:17 142 4 gusting 6 19.4
2014-Oct-30 16:07 138 4 gusting 6 19.4
2014-Oct-30 15:57 136 4 gusting 6 19.4
2014-Oct-30 15:47 139 2 gusting 7 20.0
2014-Oct-30 15:37 111 4 gusting 6 20.0
2014-Oct-30 15:27 121 3 gusting 8 20.0
2014-Oct-30 15:17 118 1 gusting 6 20.0
2014-Oct-30 15:07 118 2 gusting 6 20.0
2014-Oct-30 14:57 124 2 gusting 6 20.0
2014-Oct-30 14:47 129 3 gusting 9 20.0
2014-Oct-30 14:37 132 3 gusting 6 20.6
2014-Oct-30 14:27 118 1 gusting 5 20.6
2014-Oct-30 14:17 119 3 gusting 6 20.6
2014-Oct-30 14:07 115 2 gusting 5 20.6
2014-Oct-30 13:57 088 2 gusting 5 20.6
2014-Oct-30 13:47 072 1 gusting 7 20.6
2014-Oct-30 13:37 088 2 gusting 6 20.0
2014-Oct-30 13:27 096 4 gusting 6 20.6
2014-Oct-30 13:17 112 2 gusting 6 20.0
2014-Oct-30 13:07 103 3 gusting 6 20.6
2014-Oct-30 12:57 115 2 gusting 7 20.0
2014-Oct-30 12:47 113 3 gusting 6 20.6
2014-Oct-30 12:37 090 3 gusting 6 20.6
2014-Oct-30 12:27 117 2 gusting 6 20.0
2014-Oct-30 12:17 133 1 gusting 6 20.0
2014-Oct-30 12:07 110 2 gusting 6 20.0
2014-Oct-30 11:57 103 2 gusting 6 19.4
2014-Oct-30 11:47 101 3 gusting 6 19.4
2014-Oct-30 11:37 111 2 gusting 6 19.4
2014-Oct-30 11:27 093 1 gusting 4 19.4
2014-Oct-30 11:17 095 0 gusting 3 18.9
2014-Oct-30 11:07 078 2 gusting 5 18.9